Skip Page Navigation
NASA JPL Caltech
NASA Logo - Jet Propulsion Laboratory + View the NASA Portal
+ Near-Earth Object (NEO) Program
Search JPL
JPL Home Earth Solar System Stars & Galaxies Technology
JPL Solar System Dynamics
BODIES ORBITS EPHEMERIDES TOOLS PHYSICAL DATA DISCOVERY FAQ SITE MAP
JPL Small-Body Database Browser
Search: [ help ]  
305953 Josiedubey (2009 HV36)
Classification: Main-belt Asteroid          SPK-ID: 2305953
Ephemeris | Orbit Diagram | Orbital Elements | Physical Parameters | Discovery Circumstances | Close-Approach Data ]

[ show orbit diagram ]
Orbital Elements at Epoch 2457000.5 (2014-Dec-09.0) TDB
Reference: JPL 3 (heliocentric ecliptic J2000)
 Element Value Uncertainty (1-sigma)   Units 
e .149086514263612 1.1626e-07  
a 2.75627652689636 9.9668e-08 AU
q 2.345352867154767 2.9164e-07 AU
i 12.79797463957627 1.8421e-05 deg
node 55.21104089257584 5.5373e-05 deg
peri 111.669447982986 8.9549e-05 deg
M 109.4867803590895 6.6208e-05 deg
tp 2456492.174623786250
(2013-Jul-18.67462379)
0.00030131 JED
period 1671.408500978519
4.58
9.0658e-05
2.482e-07
d
yr
n .2153872017458566 1.1683e-08 deg/d
Q 3.167200186637952 1.1453e-07 AU
  Orbit Determination Parameters
   # obs. used (total)      57  
   data-arc span      2407 days (6.59 yr)  
   first obs. used      2007-11-01  
   last obs. used      2014-06-04  
   planetary ephem.      DE431  
   SB-pert. ephem.      SB431-BIG16  
   condition code      0  
   fit RMS      .63632  
   data source      ORB  
   producer      Otto Matic  
   solution date      2014-Jun-16 18:51:14  

Additional Information
 Earth MOID = 1.38598 AU 
 T_jup = 3.291 
[ show covariance matrix ]

Ephemeris | Orbit Diagram | Orbital Elements | Physical Parameters | Discovery Circumstances | Close-Approach Data ]

Physical Parameter Table
Parameter Symbol Value Units Sigma Reference Notes
absolute magnitude H 16.9 mag n/a MPO297583  

305953 Josiedubey           Discovered 2009 Apr. 20 by N. Falla at the RAS Observatory, Mayhill.
Josie Elizabeth Chloe Jayne Dubey (b. 1994) is the eldest granddaughter of the discoverer. Her interests include amateur dramatics together with Ballroom and Latin dancing.
NOTE: some special characters may not display properly (any characters within {} are an attempt to place the proper accent above a character)
Reference: 20120703/MPCPages.arcLast Updated: 2012-07-09

[ show close-approach data ]
Alternate Designations
 2009 HV36 = 2007 VY216 
Ephemeris | Orbit Diagram | Orbital Elements | Physical Parameters | Discovery Circumstances | Close-Approach Data ]
ABOUT SSD CREDITS/AWARDS PRIVACY/COPYRIGHT GLOSSARY LINKS
FirstGov 2014-Sep-22 10:13 UT
(server date/time)  
NASA Home Page
Site Manager:   Donald K. Yeomans
Webmaster  Alan B. Chamberlin